[TLELIST] Archives

 

[TLELIST] Current TLEs

January 8th 2026 PDT

0 HST 1 20580U 90037B 26008.23995640 .00007766 00000-0 26447-3 0 9990 2 20580 28.4664 92.0566 0002314 151.6802 208.3920 15.28452886764053 0 ISS (ZARYA) 1 25544U 98067A 26008.24201257 .00009406 00000-0 17753-3 0 9994 2 25544 51.6331 11.2620 0007619 354.1778 5.9120 15.49170014546960 0 CXO 1 25867U 99040B 26002.77389708 .00000599 00000-0 00000-0 0 9992 2 25867 53.4579 121.7282 8107582 310.8774 0.1301 0.37803565 16703 ...Continue Reading

[TLELIST] [TLELIST] Current TLEs

January 8th 2026 PDT

0 HST 1 20580U 90037B 26008.23995640 .00007766 00000-0 26447-3 0 9990 2 20580 28.4664 92.0566 0002314 151.6802 208.3920 15.28452886764053 0 ISS (ZARYA) 1 25544U 98067A 26008.24201257 .00009406 00000-0 17753-3 0 9994 2 25544 51.6331 11.2620 0007619 354.1778 5.9120 15.49170014546960 0 CXO 1 25867U 99040B 26002.77389708 .00000599 00000-0 00000-0 0 9992 2 25867 53.4579 121.7282 8107582 310.8774 0.1301 0.37803565 16703 ...Continue Reading

[TLELIST] Current TLEs

January 8th 2026 PDT

0 HST 1 20580U 90037B 26008.23995640 .00007766 00000-0 26447-3 0 9990 2 20580 28.4664 92.0566 0002314 151.6802 208.3920 15.28452886764053 0 ISS (ZARYA) 1 25544U 98067A 26008.24201257 .00009406 00000-0 17753-3 0 9994 2 25544 51.6331 11.2620 0007619 354.1778 5.9120 15.49170014546960 0 CXO 1 25867U 99040B 26002.77389708 .00000599 00000-0 00000-0 0 9992 2 25867 53.4579 121.7282 8107582 310.8774 0.1301 0.37803565 16703 ...Continue Reading

[TLELIST] Current TLEs

January 7th 2026 PDT

0 HST 1 20580U 90037B 26005.36698112 .00008156 00000-0 27853-3 0 9991 2 20580 28.4668 111.6230 0002482 126.0839 233.9986 15.28406255763611 0 ISS (ZARYA) 1 25544U 98067A 26006.24223504 .00010833 00000-0 20347-3 0 9990 2 25544 51.6328 21.1584 0007565 346.4032 13.6751 15.49129493546659 0 CXO 1 25867U 99040B 26002.77389708 .00000599 00000-0 00000-0 0 9992 2 25867 53.4579 121.7282 8107582 310.8774 0.1301 0.37803565 16703 ...Continue Reading

[TLELIST] Current TLEs

January 7th 2026 PDT

0 HST 1 20580U 90037B 26005.36698112 .00008156 00000-0 27853-3 0 9991 2 20580 28.4668 111.6230 0002482 126.0839 233.9986 15.28406255763611 0 ISS (ZARYA) 1 25544U 98067A 26006.24223504 .00010833 00000-0 20347-3 0 9990 2 25544 51.6328 21.1584 0007565 346.4032 13.6751 15.49129493546659 0 CXO 1 25867U 99040B 26002.77389708 .00000599 00000-0 00000-0 0 9992 2 25867 53.4579 121.7282 8107582 310.8774 0.1301 0.37803565 16703 ...Continue Reading

[TLELIST] Current TLEs

January 6th 2026 PDT

0 HST 1 20580U 90037B 26005.36698112 .00008156 00000-0 27853-3 0 9991 2 20580 28.4668 111.6230 0002482 126.0839 233.9986 15.28406255763611 0 ISS (ZARYA) 1 25544U 98067A 26006.24223504 .00010833 00000-0 20347-3 0 9990 2 25544 51.6328 21.1584 0007565 346.4032 13.6751 15.49129493546659 0 CXO 1 25867U 99040B 26002.77389708 .00000599 00000-0 00000-0 0 9992 2 25867 53.4579 121.7282 8107582 310.8774 0.1301 0.37803565 16703 ...Continue Reading

[TLELIST] Current TLEs

January 5th 2026 PDT

0 HST 1 20580U 90037B 26004.45283296 .00008296 00000-0 28355-3 0 9996 2 20580 28.4666 117.8486 0002527 116.6898 243.3956 15.28391625763470 0 ISS (ZARYA) 1 25544U 98067A 26005.21007013 .00011029 00000-0 20718-3 0 9991 2 25544 51.6325 26.2661 0007560 342.6147 17.4581 15.49105990546499 0 CXO 1 25867U 99040B 26002.77389708 .00000599 00000-0 00000-0 0 9992 2 25867 53.4579 121.7282 8107582 310.8774 0.1301 0.37803565 16703 ...Continue Reading

[TLELIST] Current TLEs

January 5th 2026 PDT

0 HST 1 20580U 90037B 26004.45283296 .00008296 00000-0 28355-3 0 9996 2 20580 28.4666 117.8486 0002527 116.6898 243.3956 15.28391625763470 0 ISS (ZARYA) 1 25544U 98067A 26005.21007013 .00011029 00000-0 20718-3 0 9991 2 25544 51.6325 26.2661 0007560 342.6147 17.4581 15.49105990546499 0 CXO 1 25867U 99040B 26002.77389708 .00000599 00000-0 00000-0 0 9992 2 25867 53.4579 121.7282 8107582 310.8774 0.1301 0.37803565 16703 ...Continue Reading

[TLELIST] Current TLEs

January 5th 2026 PDT

0 HST 1 20580U 90037B 26004.45283296 .00008296 00000-0 28355-3 0 9996 2 20580 28.4666 117.8486 0002527 116.6898 243.3956 15.28391625763470 0 ISS (ZARYA) 1 25544U 98067A 26005.21007013 .00011029 00000-0 20718-3 0 9991 2 25544 51.6325 26.2661 0007560 342.6147 17.4581 15.49105990546499 0 CXO 1 25867U 99040B 26002.77389708 .00000599 00000-0 00000-0 0 9992 2 25867 53.4579 121.7282 8107582 310.8774 0.1301 0.37803565 16703 ...Continue Reading

[TLELIST] Current TLEs

January 4th 2026 PDT

0 HST 1 20580U 90037B 26003.99575588 .00010446 00000-0 35903-3 0 9999 2 20580 28.4667 120.9615 0002543 112.5508 247.5357 15.28385094763408 0 ISS (ZARYA) 1 25544U 98067A 26004.24240112 .00010563 00000-0 19894-3 0 9997 2 25544 51.6326 31.0546 0007567 338.8096 21.2578 15.49083682546349 0 CXO 1 25867U 99040B 26002.77389708 .00000599 00000-0 00000-0 0 9992 2 25867 53.4579 121.7282 8107582 310.8774 0.1301 0.37803565 16703 ...Continue Reading
  • This mailing list is a public mailing list - anyone may join or leave, at any time.
  • This mailing list is announce-only.

International Space Station (ISS) / Hubble Space Telescope (HST) / Chandra X-Ray Observatory Orbital Data via EMAIL

Privacy Policy:

Private list